Regional Weather Roundup
Issued by NWS

Home | Current Version | Previous Version | Text Only | Print | Product List | Glossary Off
Versions: 1 2 3 4 5 6 7 8 9 10 11 12 13 14 15 16 17 18 19 20 21 22 23 24 25 26 27 28 29 30 31 32 33 34 35 36 37 38 39 40 41 42 43 44 45 46 47 48 49 50

000
ASUS43 KLMK 272310
RWRKY
KENTUCKY REGIONAL WEATHER ROUNDUP
NATIONAL WEATHER SERVICE LOUISVILLE KY
600 PM EST TUE JAN 27 2015

NOTE "FAIR" INDICATES FEW OR NO CLOUDS BELOW 12,000 FEET
WITH NO SIGNIFICANT WEATHER AND/OR OBSTRUCTIONS TO VISIBILITY.

KYZ001>023-026-027-061>063-070>075-280000-
WESTERN AND SOUTH CENTRAL KENTUCKY

CITY           SKY/WX    TMP DP  RH WIND       PRES   REMARKS
PADUCAH        MOCLDY    41  28  60 N10       30.18R
HENDERSON      CLOUDY    34  28  80 N9        30.20R WCI  26
OWENSBORO      CLOUDY    34  30  85 N5        30.20R WCI  30
HOPKINSVILLE   CLOUDY    37  29  72 N7        30.16R WCI  32
BOWLING GREEN  CLOUDY    35  29  78 NW6       30.17R WCI  30
GLASGOW        CLOUDY    33  29  85 N7        30.15R WCI  26
$$

KYZ024-025-028>034-038-045-046-053-280000-
NORTH CENTRAL KENTUCKY

CITY           SKY/WX    TMP DP  RH WIND       PRES   REMARKS
LOUISVILLE/SDF MOCLDY    34  21  59 N10       30.17R WCI  26
LOUISVILLE/LOU CLOUDY    33  17  51 N9        30.17R WCI  25
FORT KNOX      CLOUDY    32  25  75 NW7       30.14R WCI  25
$$

KYZ035>037-039>044-047>052-055>060-089>105-280000-
NORTHEAST KENTUCKY

CITY           SKY/WX    TMP DP  RH WIND       PRES   REMARKS
LEXINGTON      CLEAR     29  14  53 NW9       30.12R WCI  20
COVINGTON      FAIR      26  13  57 N8        30.15R WCI  18
FRANKFORT      CLEAR     30   9  41 NW5       30.13R WCI  25
$$

KYZ054-064>069-076>088-106>120-280000-
SOUTHEAST KENTUCKY

CITY           SKY/WX    TMP DP  RH WIND       PRES   REMARKS
JACKSON        CLEAR     29   5  36 VRB6      30.06R WCI  23
LONDON         CLOUDY    31  20  63 W8        30.09R WCI  23
SOMERSET       CLOUDY    32  23  69 N5        30.13R WCI  27
MIDDLESBORO    CLOUDY    32  24  73 N3        30.08R
MONTICELLO     CLOUDY    32  28  85 CALM      30.14R
$$



USA.gov is the U.S. government's official web portal to all federal, state and local government web resources and services.